When you browse on this site, cookies collect data to enhance your experience and personalize the content and advertising you see.
Visit our Privacy Policy to learn more. By continuing to use the site, you agree to this use of cookies and data.
  • In Germany
  • List of Countries
  • For 7 days
  • Water Temperature
  • Satellite Maps
  • Weather Map
  • Weather Widgets
  • user-avatar
    Login

    Hourly Weather Gold Coast

    Today, 23 July, Tuesday

    Time Temperature Precipitation Wind Pressure Humidity
    00:00 +13°C° 0.1 mm 2 mps 760 mmHg 93%
    01:00 +13°C° 0.1 mm 2 mps 760 mmHg 93%
    02:00 +13°C° 0 mm 2 mps 760 mmHg 93%
    03:00 +13°C° 0 mm 2 mps 760 mmHg 93%
    04:00 +13°C° 0 mm 2 mps 760 mmHg 93%
    05:00 +13°C° 0 mm 2 mps 761 mmHg 93%
    06:00 +13°C° 0 mm 2 mps 761 mmHg 92%
    07:00 +13°C° 0 mm 2 mps 761 mmHg 92%
    08:00 +16°C° 0 mm 2 mps 761 mmHg 79%
    09:00 +19°C° 0 mm 2 mps 762 mmHg 67%
    10:00 +23°C° 0 mm 2 mps 762 mmHg 55%
    11:00 +24°C° 0 mm 2 mps 761 mmHg 50%
    12:00 +25°C° 0 mm 2 mps 760 mmHg 45%
    13:00 +26°C° 0 mm 3 mps 760 mmHg 40%
    14:00 +26°C° 0 mm 3 mps 760 mmHg 42%
    15:00 +25°C° 0 mm 3 mps 759 mmHg 45%
    16:00 +25°C° 0 mm 3 mps 759 mmHg 47%
    17:00 +21°C° 0 mm 3 mps 760 mmHg 56%
    18:00 +19°C° 0 mm 3 mps 760 mmHg 65%
    19:00 +16°C° 0 mm 3 mps 760 mmHg 74%
    20:00 +16°C° 0 mm 3 mps 761 mmHg 77%
    21:00 +14°C° 0 mm 3 mps 761 mmHg 79%
    22:00 +14°C° 0 mm 3 mps 761 mmHg 81%
    23:00 +13°C° 0 mm 3 mps 761 mmHg 79%

    Tomorrow, 24 July, Wednesday

    Time Temperature Precipitation Wind Pressure Humidity
    00:00 +13°C° 0 mm 3 mps 761 mmHg 78%
    01:00 +14°C° 0 mm 2 mps 761 mmHg 77%
    02:00 +13°C° 0 mm 2 mps 761 mmHg 75%
    03:00 +13°C° 0 mm 2 mps 761 mmHg 73%
    04:00 +13°C° 0 mm 2 mps 761 mmHg 71%
    05:00 +13°C° 0 mm 2 mps 761 mmHg 70%
    06:00 +12°C° 0 mm 2 mps 761 mmHg 69%
    07:00 +12°C° 0 mm 2 mps 762 mmHg 68%
    08:00 +15°C° 0 mm 2 mps 762 mmHg 57%
    09:00 +18°C° 0 mm 2 mps 762 mmHg 46%
    10:00 +21°C° 0 mm 2 mps 762 mmHg 36%
    11:00 +23°C° 0 mm 2 mps 762 mmHg 32%
    12:00 +24°C° 0 mm 2 mps 761 mmHg 29%
    13:00 +25°C° 0 mm 2 mps 760 mmHg 26%
    14:00 +25°C° 0 mm 2 mps 760 mmHg 29%
    15:00 +24°C° 0 mm 2 mps 760 mmHg 33%
    16:00 +24°C° 0 mm 2 mps 760 mmHg 36%
    17:00 +20°C° 0 mm 2 mps 760 mmHg 42%
    18:00 +18°C° 0 mm 2 mps 761 mmHg 47%
    19:00 +15°C° 0 mm 2 mps 761 mmHg 53%
    20:00 +15°C° 0 mm 2 mps 762 mmHg 55%
    21:00 +14°C° 0 mm 2 mps 762 mmHg 56%
    22:00 +13°C° 0 mm 3 mps 762 mmHg 58%
    23:00 +12°C° 0 mm 3 mps 762 mmHg 60%

    Day after tomorrow, 25 July, Thursday

    Time Temperature Precipitation Wind Pressure Humidity
    00:00 +12°C° 0 mm 3 mps 762 mmHg 63%
    01:00 +12°C° 0 mm 3 mps 762 mmHg 66%
    02:00 +11°C° 0 mm 3 mps 762 mmHg 68%
    03:00 +11°C° 0 mm 3 mps 762 mmHg 71%
    04:00 +11°C° 0 mm 4 mps 762 mmHg 74%
    05:00 +11°C° 0 mm 4 mps 763 mmHg 76%
    06:00 +11°C° 0 mm 3 mps 763 mmHg 78%
    07:00 +11°C° 0 mm 3 mps 764 mmHg 80%
    08:00 +14°C° 0 mm 3 mps 764 mmHg 73%
    09:00 +18°C° 0 mm 4 mps 764 mmHg 66%
    10:00 +20°C° 0 mm 4 mps 764 mmHg 58%
    11:00 +20°C° 0 mm 4 mps 764 mmHg 58%
    12:00 +21°C° 0 mm 4 mps 763 mmHg 57%
    13:00 +21°C° 0 mm 4 mps 763 mmHg 57%
    14:00 +20°C° 0.1 mm 4 mps 763 mmHg 62%
    15:00 +20°C° 0.1 mm 4 mps 763 mmHg 67%
    16:00 +19°C° 0.1 mm 4 mps 763 mmHg 72%
    17:00 +17°C° 0.2 mm 4 mps 763 mmHg 79%
    18:00 +16°C° 0.2 mm 3 mps 763 mmHg 86%
    19:00 +14°C° 0.2 mm 3 mps 764 mmHg 93%
    20:00 +14°C° 0.1 mm 2 mps 764 mmHg 93%
    21:00 +14°C° 0.1 mm 2 mps 764 mmHg 94%
    22:00 +14°C° 0.1 mm 2 mps 765 mmHg 94%
    23:00 +13°C° 0 mm 2 mps 764 mmHg 94%

    26 July, Friday

    Time Temperature Precipitation Wind Pressure Humidity
    00:00 +13°C° 0 mm 2 mps 764 mmHg 95%
    01:00 +13°C° 0 mm 2 mps 763 mmHg 95%
    02:00 +12°C° 0 mm 2 mps 763 mmHg 94%
    03:00 +12°C° 0 mm 2 mps 763 mmHg 94%
    04:00 +12°C° 0 mm 2 mps 762 mmHg 94%
    05:00 +12°C° 0 mm 2 mps 763 mmHg 94%
    06:00 +12°C° 0 mm 2 mps 763 mmHg 93%
    07:00 +12°C° 0 mm 2 mps 763 mmHg 93%
    08:00 +15°C° 0 mm 1 mps 763 mmHg 82%
    09:00 +19°C° 0 mm 1 mps 763 mmHg 71%
    10:00 +22°C° 0 mm 1 mps 763 mmHg 60%
    11:00 +22°C° 0.1 mm 1 mps 763 mmHg 59%
    12:00 +22°C° 0.1 mm 1 mps 762 mmHg 59%
    13:00 +22°C° 0.1 mm 1 mps 761 mmHg 59%
    14:00 +21°C° 0.1 mm 1 mps 761 mmHg 62%
    15:00 +20°C° 0.1 mm 2 mps 761 mmHg 66%
    16:00 +19°C° 0.1 mm 2 mps 761 mmHg 70%
    17:00 +18°C° 0 mm 2 mps 761 mmHg 75%
    18:00 +16°C° 0 mm 1 mps 761 mmHg 81%
    19:00 +15°C° 0 mm 1 mps 761 mmHg 87%
    20:00 +14°C° 0 mm 1 mps 762 mmHg 88%
    21:00 +14°C° 0 mm 2 mps 762 mmHg 89%
    22:00 +13°C° 0 mm 2 mps 762 mmHg 90%
    23:00 +13°C° 0 mm 2 mps 762 mmHg 91%

    27 July, Saturday

    Time Temperature Precipitation Wind Pressure Humidity
    00:00 +13°C° 0 mm 2 mps 761 mmHg 91%
    01:00 +13°C° 0 mm 2 mps 761 mmHg 92%
    02:00 +13°C° 0 mm 2 mps 761 mmHg 93%
    03:00 +12°C° 0 mm 2 mps 761 mmHg 94%
    04:00 +12°C° 0 mm 2 mps 761 mmHg 95%
    05:00 +12°C° 0 mm 2 mps 761 mmHg 94%
    06:00 +12°C° 0 mm 2 mps 761 mmHg 93%
    07:00 +12°C° 0 mm 2 mps 762 mmHg 93%
    08:00 +15°C° 0 mm 2 mps 762 mmHg 78%
    09:00 +18°C° 0 mm 2 mps 762 mmHg 64%
    10:00 +20°C° 0 mm 2 mps 762 mmHg 50%
    11:00 +21°C° 0 mm 2 mps 762 mmHg 45%
    12:00 +23°C° 0 mm 2 mps 761 mmHg 41%
    13:00 +24°C° 0 mm 3 mps 760 mmHg 37%
    14:00 +22°C° 0 mm 3 mps 760 mmHg 45%
    15:00 +21°C° 0 mm 4 mps 760 mmHg 53%
    16:00 +19°C° 0 mm 4 mps 760 mmHg 61%
    17:00 +18°C° 0 mm 4 mps 761 mmHg 69%
    18:00 +15°C° 0 mm 4 mps 761 mmHg 78%
    19:00 +13°C° 0 mm 4 mps 762 mmHg 86%
    20:00 +12°C° 0 mm 3 mps 762 mmHg 87%
    21:00 +12°C° 0 mm 3 mps 762 mmHg 87%
    22:00 +11°C° 0 mm 3 mps 763 mmHg 87%
    23:00 +11°C° 0 mm 3 mps 763 mmHg 88%

    28 July, Sunday

    Time Temperature Precipitation Wind Pressure Humidity
    00:00 +11°C° 0 mm 3 mps 763 mmHg 89%
    01:00 +12°C° 0 mm 2 mps 762 mmHg 90%
    02:00 +12°C° 0 mm 2 mps 762 mmHg 92%
    03:00 +10°C° 0 mm 2 mps 762 mmHg 94%
    04:00 +10°C° 0 mm 2 mps 762 mmHg 96%
    05:00 +10°C° 0 mm 2 mps 762 mmHg 94%
    06:00 +10°C° 0 mm 2 mps 763 mmHg 93%
    07:00 +10°C° 0 mm 2 mps 763 mmHg 92%
    08:00 +15°C° 0 mm 2 mps 763 mmHg 79%
    09:00 +18°C° 0 mm 2 mps 763 mmHg 67%
    10:00 +21°C° 0 mm 2 mps 763 mmHg 54%
    11:00 +21°C° 0 mm 2 mps 762 mmHg 53%
    12:00 +22°C° 0 mm 3 mps 762 mmHg 52%
    13:00 +22°C° 0 mm 3 mps 761 mmHg 51%
    14:00 +21°C° 0.2 mm 3 mps 761 mmHg 60%
    15:00 +20°C° 0.2 mm 3 mps 761 mmHg 68%
    16:00 +19°C° 0.2 mm 3 mps 761 mmHg 77%
    17:00 +17°C° 0.3 mm 3 mps 761 mmHg 83%
    18:00 +16°C° 0.3 mm 3 mps 761 mmHg 89%
    19:00 +14°C° 0.3 mm 2 mps 762 mmHg 95%
    20:00 +14°C° 0.6 mm 2 mps 762 mmHg 95%
    21:00 +14°C° 0.6 mm 2 mps 762 mmHg 95%
    22:00 +14°C° 0.6 mm 2 mps 762 mmHg 96%
    23:00 +13°C° 0.6 mm 2 mps 762 mmHg 96%
    Show more